TimeEDT,TemperatureF,Dew PointF,Humidity,Sea Level PressureIn,VisibilityMPH,Wind Direction,Wind SpeedMPH,Gust SpeedMPH,PrecipitationIn,Events,Conditions,WindDirDegrees,DateUTC
12:14 AM,41.4,27.5,58,30.37,10.0,ESE,6.9,-,N/A,,Clear,120,2013-04-22 04:14:00
12:35 AM,41.0,27.5,59,30.37,10.0,ESE,6.9,-,N/A,,Clear,120,2013-04-22 04:35:00
12:55 AM,40.8,27.1,58,30.37,10.0,ESE,8.1,-,N/A,,Clear,120,2013-04-22 04:55:00
1:15 AM,40.1,26.8,59,30.37,10.0,ESE,8.1,-,N/A,,Clear,120,2013-04-22 05:15:00
1:35 AM,39.7,26.6,59,30.37,10.0,ESE,8.1,-,N/A,,Clear,110,2013-04-22 05:35:00
1:55 AM,39.2,26.4,60,30.37,10.0,ESE,6.9,-,N/A,,Clear,120,2013-04-22 05:55:00
2:15 AM,38.8,26.2,61,30.36,10.0,ESE,8.1,-,N/A,,Clear,120,2013-04-22 06:15:00
2:35 AM,38.3,26.2,62,30.35,10.0,ESE,6.9,-,N/A,,Clear,120,2013-04-22 06:35:00
2:55 AM,37.6,26.4,64,30.34,10.0,ESE,8.1,-,N/A,,Clear,110,2013-04-22 06:55:00
3:14 AM,37.4,26.4,65,30.34,10.0,ESE,8.1,-,N/A,,Clear,110,2013-04-22 07:14:00
3:35 AM,37.0,26.2,65,30.33,10.0,ESE,6.9,-,N/A,,Clear,110,2013-04-22 07:35:00
3:54 AM,36.7,26.4,66,30.33,10.0,ESE,8.1,-,N/A,,Clear,110,2013-04-22 07:54:00
4:15 AM,36.5,26.6,67,30.33,10.0,ESE,6.9,-,N/A,,Clear,120,2013-04-22 08:15:00
4:35 AM,36.1,26.6,68,30.32,10.0,ESE,8.1,-,N/A,,Clear,120,2013-04-22 08:35:00
4:55 AM,36.0,26.6,69,30.33,10.0,ESE,5.8,-,N/A,,Clear,120,2013-04-22 08:55:00
5:15 AM,35.8,26.4,69,30.32,10.0,ESE,5.8,-,N/A,,Clear,110,2013-04-22 09:15:00
5:35 AM,35.6,26.4,69,30.33,10.0,ESE,3.5,-,N/A,,Clear,110,2013-04-22 09:35:00
5:55 AM,34.9,26.4,71,30.34,10.0,Calm,Calm,-,N/A,,Clear,0,2013-04-22 09:55:00
6:14 AM,34.2,27.0,75,30.34,10.0,East,4.6,-,N/A,,Clear,100,2013-04-22 10:14:00
6:35 AM,34.2,27.0,75,30.33,10.0,East,4.6,-,N/A,,Clear,100,2013-04-22 10:35:00
6:55 AM,33.8,27.1,77,30.34,10.0,ESE,3.5,-,N/A,,Clear,110,2013-04-22 10:55:00
7:15 AM,34.0,27.3,77,30.33,10.0,East,5.8,-,N/A,,Clear,100,2013-04-22 11:15:00
7:35 AM,34.9,27.3,74,30.33,10.0,ESE,4.6,-,N/A,,Clear,110,2013-04-22 11:35:00
7:54 AM,36.1,27.5,71,30.33,10.0,ESE,6.9,-,N/A,,Clear,110,2013-04-22 11:54:00
8:15 AM,37.6,27.5,67,30.33,10.0,ESE,8.1,-,N/A,,Clear,110,2013-04-22 12:15:00
8:35 AM,39.9,27.7,62,30.33,10.0,SE,5.8,-,N/A,,Clear,130,2013-04-22 12:35:00
8:55 AM,41.2,27.7,59,30.33,10.0,SE,8.1,-,N/A,,Clear,130,2013-04-22 12:55:00
9:15 AM,43.2,27.9,55,30.33,10.0,SE,8.1,-,N/A,,Clear,140,2013-04-22 13:15:00
9:35 AM,44.2,27.3,51,30.32,10.0,SE,8.1,-,N/A,,Clear,140,2013-04-22 13:35:00
9:55 AM,46.0,27.3,48,30.31,10.0,SE,5.8,-,N/A,,Clear,130,2013-04-22 13:55:00
10:15 AM,48.0,27.5,45,30.31,10.0,SSE,5.8,-,N/A,,Clear,150,2013-04-22 14:15:00
10:35 AM,49.8,26.8,41,30.31,10.0,SE,6.9,-,N/A,,Clear,140,2013-04-22 14:35:00
10:54 AM,50.9,26.6,39,30.30,10.0,SE,8.1,-,N/A,,Clear,130,2013-04-22 14:54:00
11:15 AM,52.5,26.4,36,30.30,10.0,ESE,8.1,-,N/A,,Clear,120,2013-04-22 15:15:00
11:34 AM,54.0,26.8,35,30.30,10.0,SSE,5.8,-,N/A,,Clear,160,2013-04-22 15:34:00
11:55 AM,54.9,27.0,34,30.30,10.0,ESE,6.9,-,N/A,,Clear,120,2013-04-22 15:55:00
12:14 PM,55.4,27.3,34,30.29,10.0,SE,9.2,-,N/A,,Clear,130,2013-04-22 16:14:00
12:35 PM,56.8,27.5,33,30.28,10.0,SSE,4.6,-,N/A,,Clear,150,2013-04-22 16:35:00
12:55 PM,57.9,27.9,32,30.28,10.0,SE,5.8,-,N/A,,Clear,130,2013-04-22 16:55:00
1:15 PM,57.9,27.9,32,30.27,7.0,East,5.8,-,N/A,,Clear,90,2013-04-22 17:15:00
1:35 PM,59.4,27.5,30,30.26,10.0,SSE,8.1,-,N/A,,Clear,160,2013-04-22 17:35:00
1:55 PM,59.4,26.2,28,30.25,7.0,SE,5.8,-,N/A,,Clear,140,2013-04-22 17:55:00
2:15 PM,60.6,27.0,28,30.24,7.0,South,4.6,-,N/A,,Clear,170,2013-04-22 18:15:00
2:35 PM,62.4,26.6,26,30.23,7.0,South,9.2,-,N/A,,Clear,170,2013-04-22 18:35:00
2:54 PM,62.2,26.1,25,30.23,10.0,ESE,6.9,-,N/A,,Clear,120,2013-04-22 18:54:00
3:15 PM,62.6,24.4,23,30.22,10.0,SSW,5.8,-,N/A,,Clear,210,2013-04-22 19:15:00
3:35 PM,62.8,26.4,25,30.21,10.0,ESE,8.1,-,N/A,,Clear,110,2013-04-22 19:35:00
3:54 PM,63.9,25.5,23,30.20,10.0,ESE,9.2,-,N/A,,Clear,110,2013-04-22 19:54:00
4:15 PM,63.0,23.9,23,30.19,10.0,ESE,6.9,16.1,N/A,,Clear,110,2013-04-22 20:15:00
4:35 PM,62.8,23.4,22,30.18,10.0,ESE,8.1,-,N/A,,Clear,110,2013-04-22 20:35:00
4:55 PM,63.5,22.3,21,30.17,10.0,ESE,12.7,-,N/A,,Clear,110,2013-04-22 20:55:00
5:15 PM,63.0,19.8,19,30.16,10.0,SE,10.4,-,N/A,,Clear,130,2013-04-22 21:15:00
5:34 PM,63.5,19.9,19,30.15,10.0,ESE,9.2,-,N/A,,Clear,110,2013-04-22 21:34:00
5:55 PM,63.9,21.7,20,30.15,10.0,SE,9.2,-,N/A,,Clear,130,2013-04-22 21:55:00
6:15 PM,64.2,23.2,21,30.14,10.0,SE,10.4,-,N/A,,Clear,140,2013-04-22 22:15:00
6:35 PM,63.7,22.6,21,30.13,10.0,SSE,8.1,-,N/A,,Clear,150,2013-04-22 22:35:00
6:54 PM,63.1,23.5,22,30.12,10.0,SE,8.1,-,N/A,,Clear,140,2013-04-22 22:54:00
7:15 PM,62.6,24.4,23,30.12,10.0,ESE,10.4,-,N/A,,Clear,110,2013-04-22 23:15:00
7:35 PM,61.7,24.8,24,30.11,10.0,East,8.1,-,N/A,,Clear,100,2013-04-22 23:35:00
7:55 PM,60.4,25.7,27,30.11,10.0,ESE,5.8,-,N/A,,Clear,110,2013-04-22 23:55:00
8:14 PM,59.5,25.5,27,30.11,10.0,ESE,4.6,-,N/A,,Clear,110,2013-04-23 00:14:00
8:35 PM,57.9,26.1,30,30.11,10.0,ESE,3.5,-,N/A,,Clear,110,2013-04-23 00:35:00
8:55 PM,57.0,25.9,30,30.12,10.0,ESE,4.6,-,N/A,,Clear,120,2013-04-23 00:55:00
9:15 PM,55.6,26.4,33,30.12,10.0,ESE,4.6,-,N/A,,Clear,110,2013-04-23 01:15:00
9:34 PM,55.4,26.1,32,30.12,10.0,Calm,Calm,-,N/A,,Clear,0,2013-04-23 01:34:00
9:55 PM,54.0,26.6,35,30.12,10.0,ESE,5.8,-,N/A,,Clear,110,2013-04-23 01:55:00
10:15 PM,53.6,26.6,35,30.12,10.0,ESE,5.8,-,N/A,,Clear,110,2013-04-23 02:15:00
10:35 PM,52.7,27.0,37,30.12,10.0,East,5.8,-,N/A,,Clear,100,2013-04-23 02:35:00
10:55 PM,51.8,27.1,39,30.12,10.0,ESE,5.8,-,N/A,,Clear,110,2013-04-23 02:55:00
11:15 PM,51.1,27.5,40,30.11,10.0,ESE,5.8,-,N/A,,Clear,110,2013-04-23 03:15:00
11:35 PM,50.5,27.5,41,30.11,10.0,East,5.8,-,N/A,,Clear,100,2013-04-23 03:35:00
11:55 PM,50.7,26.8,40,30.10,10.0,East,5.8,-,N/A,,Clear,100,2013-04-23 03:55:00